Lid_Strength_Index
7 10 11 9 9 8 9 10 12 10 7 9 9 9 9 8 7 8 7 7 6 6 4 3 5 6 5 4 4 4 4 3 2 2 2 3 3 3 3 3 3 3 3 2
8 10 7 6 7 8 9 10 11 9 7 8 9 10 9 8 8 8 8 7 6 5 5 4 5 6 6 5 4 4 4 3 4 3 3 3 3 3 2 3 3 2 3 3
9 8 6 7 8 9 10 10 10 10 9 8 10 11 10 8 8 7 7 6 5 6 5 4 5 6 5 5 5 4 4 4 4 3 3 3 3 3 3 3 3 3 3 3
8 6 7 7 8 8 11 8 8 9 11 14 10 16 11 10 9 8 8 7 6 5 5 4 3 5 6 6 5 4 4 3 4 3 4 4 4 4 4 4 4 4 4 4
9 8 9 9 8 8 9 7 8 9 12 13 11 14 13 10 11 9 8 7 6 5 5 5 4 5 6 5 5 5 4 3 3 3 4 4 4 5 3 4 5 5 5 4
8 6 7 8 7 7 6 8 9 10 12 15 11 13 13 11 9 9 7 6 6 5 5 4 3 4 5 5 5 5 4 4 4 4 5 5 5 4 4 4 5 5 5 5
9 8 7 6 9 7 8 11 16 16 16 17 11 12 12 8 7 7 7 7 6 5 5 5 4 4 5 6 5 5 4 4 4 4 4 5 4 5 4 5 4 5 5 5
12 13 8 7 8 10 10 11 16 18 18 15 11 14 11 7 7 7 6 7 6 6 5 5 4 3 4 5 5 5 4 5 4 5 4 4 3 3 3 4 4 4 5 4
12 12 7 7 7 7 10 12 9 13 13 16 13 11 9 8 8 7 6 6 7 6 5 5 4 3 4 5 5 5 4 4 4 4 3 4 3 3 3 4 3 3 4 6
9 13 8 8 7 7 9 8 13 14 18 19 15 13 13 10 9 8 7 7 6 6 6 5 4 4 4 4 4 5 5 4 3 3 4 3 3 3 3 3 4 4 6 7
8 10 10 8 10 10 10 11 11 11 14 18 19 15 9 9 8 8 7 6 6 6 6 5 4 4 4 3 4 5 5 5 3 3 3 3 3 3 3 4 5 6 7 7
8 10 13 11 8 7 9 10 10 16 15 14 15 15 8 9 8 7 7 6 6 5 5 5 5 4 4 4 4 5 5 5 4 3 3 4 4 3 4 5 6 7 7 7
8 11 15 13 10 9 10 9 9 10 12 14 17 15 7 6 7 7 7 6 6 5 5 5 5 4 4 4 4 4 5 5 4 4 3 3 4 5 5 6 7 7 7 7
7 10 12 15 13 10 12 10 10 11 15 14 13 12 9 9 8 8 7 6 6 5 5 6 6 6 4 3 4 4 5 5 4 4 4 4 5 6 6 6 7 7 8 9
8 12 11 10 9 9 10 10 10 11 11 13 11 11 9 8 8 7 6 6 6 5 5 5 5 6 6 4 4 4 4 4 4 4 4 5 5 6 7 7 8 9 9 9
8 12 11 12 9 9 11 10 10 10 9 9 10 11 8 7 7 7 6 6 6 6 5 5 5 4 5 5 4 3 3 4 4 4 4 4 4 6 7 9 10 9 10 10
10 11 13 15 10 10 14 10 10 10 10 10 12 10 7 8 7 7 7 6 6 5 5 5 4 4 5 5 5 5 5 4 4 4 4 5 6 8 9 9 9 10 11 11
11 11 12 16 13 20 11 8 8 9 9 9 9 8 8 7 6 6 5 6 5 5 5 5 4 4 4 5 5 5 4 4 4 5 5 6 7 8 9 10 10 11 12 12
9 11 15 17 17 13 11 9 9 10 11 8 9 8 7 6 6 7 5 4 5 5 4 4 4 4 4 5 4 4 4 4 5 5 6 7 8 9 9 10 11 11 12 13
10 9 12 15 18 19 12 8 6 8 13 8 7 8 8 7 11 9 6 4 5 4 4 5 5 4 4 5 4 4 5 4 5 5 7 8 8 9 10 11 11 11 12 12
13 13 15 15 16 13 8 7 6 13 13 7 7 7 7 9 8 6 5 5 4 5 5 5 5 5 5 5 4 5 5 5 5 6 7 9 9 10 11 11 12 12 13 13
12 14 16 14 16 17 7 8 12 9 7 7 7 7 7 7 6 5 6 5 4 6 5 6 6 6 6 5 4 6 6 6 6 7 8 10 10 10 11 12 12 12 13 15
13 11 12 11 12 8 7 7 7 6 7 7 7 7 7 7 6 5 5 5 5 5 6 5 6 6 6 5 5 6 7 7 8 9 10 10 11 11 11 12 13 14 14 15
10 8 10 10 8 7 7 5 5 6 6 6 6 6 7 8 7 8 6 5 5 4 6 6 6 7 7 6 5 6 7 7 8 10 11 11 13 13 13 12 13 14 15 15
11 10 10 10 9 7 7 7 8 8 6 6 6 6 7 7 8 8 7 5 5 5 5 5 6 6 6 6 6 6 7 8 9 10 11 12 13 13 14 15 15 14 16 14
10 11 12 13 9 9 9 8 7 8 8 8 7 8 8 8 8 8 7 5 4 5 5 5 5 5 6 5 6 7 7 8 10 11 12 13 13 14 16 17 18 15 15 14